TimeEST,TemperatureF,Dew PointF,Humidity,Sea Level PressureIn,VisibilityMPH,Wind Direction,Wind SpeedMPH,Gust SpeedMPH,PrecipitationIn,Events,Conditions,WindDirDegrees,DateUTC
12:53 AM,34.0,27.0,75,30.57,10.0,Calm,Calm,-,N/A,,Overcast,0,2012-11-14 05:53:00
1:53 AM,34.0,27.0,75,30.56,10.0,Calm,Calm,-,N/A,,Overcast,0,2012-11-14 06:53:00
2:53 AM,33.1,27.0,78,30.56,10.0,Calm,Calm,-,N/A,,Overcast,0,2012-11-14 07:53:00
3:53 AM,34.0,27.0,75,30.56,10.0,SE,3.5,-,N/A,,Overcast,130,2012-11-14 08:53:00
4:53 AM,34.0,27.0,75,30.58,10.0,Calm,Calm,-,N/A,,Overcast,0,2012-11-14 09:53:00
5:53 AM,34.0,28.9,82,30.59,10.0,Calm,Calm,-,N/A,,Overcast,0,2012-11-14 10:53:00
6:53 AM,34.0,28.0,79,30.59,10.0,Calm,Calm,-,N/A,,Overcast,0,2012-11-14 11:53:00
7:53 AM,34.0,28.9,82,30.61,9.0,Calm,Calm,-,N/A,,Overcast,0,2012-11-14 12:53:00
8:53 AM,35.1,26.1,70,30.61,10.0,ESE,4.6,-,N/A,,Overcast,110,2012-11-14 13:53:00
9:53 AM,36.0,23.0,59,30.61,10.0,ESE,8.1,-,N/A,,Overcast,120,2012-11-14 14:53:00
10:53 AM,37.0,21.9,54,30.61,10.0,East,6.9,-,N/A,,Overcast,100,2012-11-14 15:53:00
11:53 AM,37.0,21.9,54,30.60,10.0,ESE,8.1,24.2,N/A,,Overcast,120,2012-11-14 16:53:00
12:53 PM,37.9,23.0,55,30.57,10.0,SE,4.6,-,N/A,,Overcast,130,2012-11-14 17:53:00
1:53 PM,37.9,24.1,57,30.54,10.0,East,5.8,-,N/A,,Overcast,90,2012-11-14 18:53:00
2:53 PM,37.9,24.1,57,30.52,10.0,East,3.5,-,N/A,,Overcast,100,2012-11-14 19:53:00
3:53 PM,37.9,25.0,60,30.52,10.0,ENE,4.6,-,N/A,,Overcast,70,2012-11-14 20:53:00
4:53 PM,37.0,24.1,59,30.51,10.0,Variable,3.5,-,N/A,,Overcast,0,2012-11-14 21:53:00
5:53 PM,36.0,24.1,62,30.50,10.0,East,4.6,-,N/A,,Scattered Clouds,80,2012-11-14 22:53:00
6:53 PM,33.1,24.1,70,30.51,10.0,Calm,Calm,-,N/A,,Clear,0,2012-11-14 23:53:00
7:53 PM,30.0,24.1,79,30.51,10.0,Calm,Calm,-,N/A,,Clear,0,2012-11-15 00:53:00
8:53 PM,30.9,25.0,79,30.49,10.0,Calm,Calm,-,N/A,,Clear,0,2012-11-15 01:53:00
9:53 PM,28.0,23.0,81,30.47,10.0,Calm,Calm,-,N/A,,Clear,0,2012-11-15 02:53:00
10:53 PM,28.0,23.0,81,30.46,10.0,Calm,Calm,-,N/A,,Clear,0,2012-11-15 03:53:00
11:53 PM,27.0,21.9,81,30.45,9.0,Calm,Calm,-,N/A,,Clear,0,2012-11-15 04:53:00